Hugo, OK

4:50 PM CST on February 26, 2017 (GMT -0600)
Stamper Municipal

Weather History for KHHW - April, 2014

Change the Weather History Date:

Monday, April 14, 2014

  Actual Average Record
Temperature  
Mean Temperature 52 °F -  
Max Temperature 61 °F 74 °F 80 °F (2013)
Min Temperature 42 °F 49 °F 42 °F (2014)
Degree Days  
Heating Degree Days 13    
Growing Degree Days 2 (Base 50)    
Moisture  
Dew Point 42 °F    
Average Humidity 74    
Maximum Humidity 90    
Minimum Humidity 55    
Precipitation  
Precipitation 0.00 in - - ()
Sea Level Pressure  
Sea Level Pressure 29.98 in    
Wind  
Wind Speed 13 mph (NNW)    
Max Wind Speed 23 mph    
Max Gust Speed 33 mph    
Visibility 10 miles    
Events Rain    
Averages and records for this station are not official NWS values.
T = Trace of Precipitation, MM = Missing Value Source: NWS Daily Summary

Daily Weather History Graph

Daily Weather History Graph

Search for Another Location

Airport or City:

Trip Planner

Search our weather history database for the weather conditions in past years. The results will help you decide how hot, cold, wet, or windy it might be!

Date:

Astronomy

Apr. 14, 2014 Rise Set
Actual Time 6:52 AM CDT 7:52 PM CDT
Civil Twilight 6:26 AM CDT 8:18 PM CDT
Nautical Twilight 5:56 AM CDT 8:49 PM CDT
Astronomical Twilight 5:24 AM CDT 9:20 PM CDT
Moon 7:33 PM CDT (4/14) 6:23 AM CDT (4/14)
Length of Visible Light 13h 51m
Length of Day
13h 00m
Full, 100% of the Moon is Illuminated
Apr 14
Full
Apr 15
Full
Apr 22
Last Quarter
Apr 29
New
May 6
First Quarter

Hourly Weather History & Observations

Time (CDT) Temp. Windchill Dew Point Humidity Pressure Visibility Wind Dir Wind Speed Gust Speed Precip Events Conditions
12:15 AM 62.6 °F - 59.2 °F 89% 29.73 in 10.0 mi North 5.8 mph - N/A   Overcast
12:35 AM 62.6 °F - 59.0 °F 88% 29.75 in 10.0 mi North 8.1 mph - N/A   Overcast
12:55 AM 61.9 °F - 58.5 °F 89% 29.75 in 10.0 mi North 10.4 mph - N/A   Overcast
1:15 AM 60.8 °F - 57.6 °F 89% 29.74 in 10.0 mi North 8.1 mph - N/A   Overcast
1:35 AM 60.6 °F - 57.2 °F 88% 29.74 in 10.0 mi North 9.2 mph - N/A   Overcast
1:55 AM 60.4 °F - 57.6 °F 90% 29.76 in 10.0 mi NNW 10.4 mph - N/A   Overcast
2:15 AM 59.9 °F - 56.7 °F 89% 29.75 in 10.0 mi NNW 10.4 mph - N/A   Overcast
2:35 AM 59.2 °F - 55.8 °F 88% 29.75 in 10.0 mi NNW 11.5 mph - N/A   Overcast
2:55 AM 58.5 °F - 54.3 °F 86% 29.76 in 10.0 mi NNW 15.0 mph 23.0 mph N/A   Overcast
3:15 AM 57.2 °F - 53.2 °F 87% 29.76 in 10.0 mi NNW 17.3 mph 20.7 mph N/A   Overcast
3:35 AM 55.4 °F - 51.3 °F 86% 29.76 in 10.0 mi NNW 12.7 mph 23.0 mph N/A   Overcast
3:55 AM 54.5 °F - 50.4 °F 86% 29.76 in 10.0 mi NNW 17.3 mph 23.0 mph N/A   Overcast
4:15 AM 53.8 °F - 49.5 °F 85% 29.77 in 10.0 mi NNW 17.3 mph 21.9 mph N/A   Overcast
4:35 AM 53.1 °F - 48.6 °F 85% 29.78 in 10.0 mi North 13.8 mph 19.6 mph N/A   Overcast
4:55 AM 52.5 °F - 47.7 °F 84% 29.79 in 10.0 mi North 11.5 mph 20.7 mph N/A   Overcast
5:15 AM 51.8 °F - 47.1 °F 84% 29.81 in 10.0 mi NNW 12.7 mph - N/A   Overcast
5:35 AM 50.9 °F - 45.9 °F 83% 29.82 in 10.0 mi NNW 15.0 mph 21.9 mph N/A   Overcast
5:55 AM 50.5 °F - 45.1 °F 82% 29.83 in 10.0 mi North 18.4 mph 23.0 mph N/A   Overcast
6:15 AM 50.0 °F - 44.6 °F 82% 29.84 in 10.0 mi North 16.1 mph - N/A   Overcast
6:35 AM 49.6 °F - 44.6 °F 83% 29.87 in 10.0 mi North 17.3 mph 25.3 mph N/A   Overcast
6:55 AM 48.6 °F - 44.8 °F 87% 29.88 in 7.0 mi NNW 16.1 mph - N/A   Heavy Drizzle
7:15 AM 48.0 °F - 44.4 °F 87% 29.90 in 10.0 mi NNW 15.0 mph 24.2 mph N/A   Overcast
7:35 AM 47.7 °F - 43.5 °F 86% 29.92 in 10.0 mi NNW 20.7 mph 25.3 mph N/A   Overcast
7:55 AM 47.7 °F - 43.2 °F 84% 29.92 in 10.0 mi NNW 17.3 mph 25.3 mph N/A   Overcast
8:15 AM 47.5 °F - 42.8 °F 84% 29.93 in 10.0 mi NNW 16.1 mph 23.0 mph N/A   Overcast
8:35 AM 46.6 °F - 43.3 °F 88% 29.94 in 5.0 mi NNW 15.0 mph 19.6 mph N/A   Overcast
8:55 AM 46.6 °F - 42.4 °F 85% 29.96 in 10.0 mi NNW 20.7 mph 24.2 mph N/A   Overcast
9:15 AM 46.8 °F - 41.2 °F 81% 29.95 in 10.0 mi North 17.3 mph 25.3 mph N/A   Overcast
9:35 AM 46.6 °F - 41.9 °F 84% 29.96 in 10.0 mi North 10.4 mph 19.6 mph N/A Rain Light Rain
9:55 AM 47.3 °F - 42.3 °F 83% 29.97 in 10.0 mi North 15.0 mph 25.3 mph N/A   Overcast
10:15 AM 47.5 °F - 42.1 °F 82% 29.98 in 10.0 mi NNW 15.0 mph 20.7 mph N/A   Overcast
10:35 AM 47.8 °F - 41.2 °F 78% 29.99 in 10.0 mi North 20.7 mph 27.6 mph N/A   Overcast
10:55 AM 48.2 °F - 40.8 °F 76% 30.00 in 10.0 mi North 20.7 mph 25.3 mph N/A   Overcast
11:15 AM 48.2 °F - 40.5 °F 75% 30.01 in 10.0 mi North 19.6 mph 28.8 mph N/A   Overcast
11:35 AM 48.4 °F - 40.3 °F 74% 30.02 in 10.0 mi NNW 18.4 mph 26.5 mph N/A   Overcast
11:55 AM 46.8 °F - 40.3 °F 78% 30.03 in 10.0 mi North 18.4 mph 26.5 mph N/A   Overcast
12:35 PM 47.1 °F - 39.0 °F 73% 30.03 in 10.0 mi NNW 20.7 mph 32.2 mph N/A   Overcast
12:55 PM 47.8 °F - 38.8 °F 71% 30.05 in 10.0 mi North 17.3 mph 28.8 mph N/A   Overcast
1:15 PM 48.9 °F - 38.1 °F 66% 30.06 in 10.0 mi North 18.4 mph 27.6 mph N/A   Overcast
1:35 PM 48.2 °F - 37.9 °F 68% 30.07 in 10.0 mi NNW 18.4 mph 26.5 mph N/A   Overcast
1:55 PM 47.7 °F - 37.4 °F 68% 30.07 in 10.0 mi NNW 20.7 mph 29.9 mph N/A   Overcast
2:15 PM 48.2 °F - 36.5 °F 64% 30.08 in 10.0 mi North 17.3 mph 25.3 mph N/A   Overcast
2:35 PM 49.1 °F - 36.5 °F 62% 30.10 in 10.0 mi NNW 15.0 mph 27.6 mph N/A   Overcast
3:15 PM 48.7 °F - 35.6 °F 60% 30.08 in 10.0 mi North 21.9 mph 29.9 mph N/A   Overcast
3:35 PM 50.2 °F - 36.5 °F 59% 30.07 in 10.0 mi North 18.4 mph 28.8 mph N/A   Overcast
3:55 PM 48.7 °F - 35.8 °F 61% 30.08 in 10.0 mi North 21.9 mph 26.5 mph N/A   Overcast
4:15 PM 51.1 °F - 35.8 °F 56% 30.07 in 10.0 mi North 20.7 mph 33.4 mph N/A   Overcast
4:35 PM 51.4 °F - 36.3 °F 56% 30.08 in 10.0 mi North 20.7 mph 26.5 mph N/A   Overcast
4:55 PM 50.7 °F - 35.8 °F 57% 30.08 in 10.0 mi North 19.6 mph 25.3 mph N/A   Overcast
5:15 PM 50.2 °F - 34.7 °F 55% 30.09 in 10.0 mi North 13.8 mph 33.4 mph N/A   Overcast
5:35 PM 50.0 °F - 35.4 °F 57% 30.10 in 10.0 mi North 16.1 mph 25.3 mph N/A   Overcast
5:55 PM 50.0 °F - 34.9 °F 56% 30.10 in 10.0 mi North 23.0 mph 29.9 mph N/A   Overcast
6:15 PM 49.6 °F - 34.5 °F 56% 30.11 in 10.0 mi North 13.8 mph 21.9 mph N/A   Overcast
6:35 PM 49.6 °F - 34.7 °F 56% 30.11 in 10.0 mi North 12.7 mph 20.7 mph N/A   Overcast
6:55 PM 50.0 °F - 34.3 °F 55% 30.11 in 10.0 mi North 15.0 mph 20.7 mph N/A   Overcast
7:15 PM 49.6 °F - 34.7 °F 56% 30.11 in 10.0 mi North 9.2 mph - N/A   Mostly Cloudy
7:35 PM 50.0 °F - 34.7 °F 56% 30.12 in 10.0 mi North 8.1 mph - N/A   Overcast
7:55 PM 49.3 °F - 34.2 °F 56% 30.12 in 10.0 mi North 6.9 mph 17.3 mph N/A   Mostly Cloudy
8:15 PM 48.6 °F - 34.5 °F 58% 30.13 in 10.0 mi North 8.1 mph - N/A   Mostly Cloudy
8:35 PM 47.5 °F - 34.9 °F 62% 30.14 in 10.0 mi NNW 6.9 mph - N/A   Mostly Cloudy
8:55 PM 46.8 °F - 35.1 °F 64% 30.15 in 10.0 mi NNW 6.9 mph - N/A   Scattered Clouds
9:15 PM 46.0 °F 43.1 °F 34.7 °F 65% 30.17 in 10.0 mi NNW 5.8 mph - N/A   Clear
9:35 PM 45.5 °F 43.2 °F 33.8 °F 64% 30.18 in 10.0 mi NNW 4.6 mph - N/A   Clear
9:55 PM 45.3 °F 42.3 °F 33.4 °F 63% 30.19 in 10.0 mi NNW 5.8 mph - N/A   Clear
10:15 PM 44.2 °F 41.0 °F 33.6 °F 66% 30.20 in 10.0 mi NNW 5.8 mph - N/A   Clear
10:35 PM 43.7 °F 40.3 °F 33.4 °F 67% 30.21 in 10.0 mi NNW 5.8 mph - N/A   Clear
10:55 PM 43.7 °F 41.1 °F 33.8 °F 68% 30.21 in 10.0 mi NNW 4.6 mph - N/A   Clear
11:15 PM 42.8 °F 40.1 °F 33.4 °F 70% 30.22 in 10.0 mi NNW 4.6 mph - N/A   Clear
11:35 PM 42.3 °F 38.6 °F 33.3 °F 70% 30.22 in 10.0 mi NW 5.8 mph - N/A   Clear